KLM38M EHAM-EDDW

Flight info

Callsign KLM38M
Flight time 0h 51m
Altitude 23000
Route ANDIK M105 REVLA T948 GIBMA GIBMA2P
Aircraft E75L/M-SDE3GILORVW/S

Departure

Time 2026-04-28 20:01
Airport Amsterdam Airport Schiphol (EHAM)

Arrival

Time 2026-04-28 20:52
Airport Bremen Airport (EDDW)
Time Latitude Longitude Altitude Speed Heading
2026-04-28 19:44 52.31364 4.75809 -5 ft 0 kts 266°
2026-04-28 19:49 52.31364 4.75815 -5 ft 1 kts 265°
2026-04-28 19:49 52.31366 4.75837 -5 ft 2 kts 265°
2026-04-28 19:49 52.31367 4.75866 -5 ft 3 kts 266°
2026-04-28 19:50 52.31366 4.75925 -5 ft 2 kts 316°
2026-04-28 19:50 52.31356 4.75932 -5 ft 2 kts 349°
2026-04-28 19:50 52.31345 4.75934 -5 ft 2 kts 353°
2026-04-28 19:51 52.31344 4.75934 -5 ft 0 kts 354°
2026-04-28 19:51 52.31352 4.75933 -5 ft 4 kts 354°
2026-04-28 19:51 52.31399 4.75925 -5 ft 10 kts 354°
2026-04-28 19:52 52.31482 4.75911 -5 ft 14 kts 349°
2026-04-28 19:52 52.31521 4.75806 -5 ft 13 kts 260°
2026-04-28 19:52 52.31514 4.75632 -5 ft 18 kts 268°
2026-04-28 19:52 52.31507 4.75394 -5 ft 24 kts 266°
2026-04-28 19:53 52.31499 4.75095 -5 ft 29 kts 267°
2026-04-28 19:53 52.31488 4.74788 -5 ft 26 kts 266°
2026-04-28 19:53 52.31482 4.74625 -4 ft 21 kts 266°
2026-04-28 19:53 52.31504 4.74313 -5 ft 17 kts 330°
2026-04-28 19:54 52.31627 4.74300 -2 ft 18 kts
2026-04-28 19:54 52.31767 4.74311 -5 ft 23 kts
2026-04-28 19:54 52.31919 4.74325 -8 ft 21 kts
2026-04-28 19:54 52.32012 4.74309 -8 ft 13 kts 327°
2026-04-28 19:55 52.32032 4.74172 -8 ft 15 kts 271°
2026-04-28 19:55 52.32035 4.73977 -6 ft 12 kts 272°
2026-04-28 19:55 52.32041 4.73820 -2 ft 15 kts 274°
2026-04-28 19:55 52.32051 4.73623 -1 ft 20 kts 275°
2026-04-28 19:56 52.32071 4.73414 -1 ft 12 kts 291°
2026-04-28 19:56 52.32134 4.73289 -2 ft 18 kts 319°
2026-04-28 19:56 52.32242 4.73137 -4 ft 23 kts 319°
2026-04-28 19:56 52.32379 4.72945 -5 ft 28 kts 319°
2026-04-28 19:57 52.32487 4.72792 -5 ft 22 kts 319°
2026-04-28 19:57 52.32613 4.72616 -5 ft 25 kts 319°
2026-04-28 19:57 52.32741 4.72400 -3 ft 28 kts 312°
2026-04-28 19:57 52.32832 4.72201 -4 ft 19 kts 283°
2026-04-28 19:58 52.32840 4.71993 -6 ft 16 kts 285°
2026-04-28 19:58 52.32911 4.71828 -5 ft 20 kts 312°
2026-04-28 19:58 52.33011 4.71646 -4 ft 24 kts 310°
2026-04-28 19:58 52.33071 4.71450 -2 ft 20 kts 268°
2026-04-28 19:59 52.32974 4.71264 -5 ft 25 kts 221°
2026-04-28 19:59 52.32869 4.71061 -6 ft 19 kts 264°
2026-04-28 19:59 52.32901 4.70897 -6 ft 10 kts 336°
2026-04-28 19:59 52.32959 4.70891 -7 ft 0 kts
2026-04-28 20:00 52.33022 4.70896 -9 ft 41 kts
2026-04-28 20:00 52.33646 4.70955 1 ft 134 kts
2026-04-28 20:01 52.34803 4.71046 280 ft 196 kts
2026-04-28 20:01 52.36396 4.71132 739 ft 273 kts
2026-04-28 20:01 52.38486 4.71360 1094 ft 305 kts
2026-04-28 20:01 52.40559 4.71527 1170 ft 294 kts
2026-04-28 20:02 52.42556 4.71721 1141 ft 277 kts
2026-04-28 20:02 52.44409 4.71906 1015 ft 258 kts
2026-04-28 20:02 52.46155 4.72083 2057 ft 242 kts 11°
2026-04-28 20:02 52.47875 4.72316 3425 ft 252 kts 11°
2026-04-28 20:03 52.49636 4.72528 4755 ft 253 kts
2026-04-28 20:03 52.51400 4.72686 6010 ft 256 kts
2026-04-28 20:03 52.53138 4.73321 6976 ft 256 kts 31°
2026-04-28 20:03 52.54389 4.75291 7907 ft 254 kts 60°
2026-04-28 20:04 52.55206 4.77902 8828 ft 259 kts 66°
2026-04-28 20:04 52.55912 4.80650 9668 ft 265 kts 70°
2026-04-28 20:04 52.56488 4.83481 10593 ft 268 kts 72°
2026-04-28 20:04 52.57046 4.86412 11471 ft 269 kts 72°
2026-04-28 20:05 52.57610 4.89395 12230 ft 276 kts 72°
2026-04-28 20:05 52.58322 4.92374 12735 ft 279 kts 65°
2026-04-28 20:05 52.59206 4.95194 12884 ft 284 kts 61°
2026-04-28 20:05 52.60210 4.98062 13471 ft 299 kts 57°
2026-04-28 20:06 52.61474 5.00866 14095 ft 312 kts 52°
2026-04-28 20:06 52.62838 5.03749 14693 ft 324 kts 52°
2026-04-28 20:06 52.64240 5.06675 15517 ft 326 kts 51°
2026-04-28 20:06 52.65654 5.09628 16395 ft 330 kts 51°
2026-04-28 20:07 52.67075 5.12606 17314 ft 332 kts 51°
2026-04-28 20:07 52.68023 5.14594 17930 ft 333 kts 51°
2026-04-28 20:07 52.69953 5.18649 19094 ft 339 kts 51°
2026-04-28 20:07 52.71418 5.21743 19966 ft 341 kts 53°
2026-04-28 20:08 52.72708 5.25045 20874 ft 344 kts 59°
2026-04-28 20:08 52.73872 5.28520 21771 ft 347 kts 61°
2026-04-28 20:08 52.74969 5.32072 22577 ft 349 kts 64°
2026-04-28 20:08 52.75784 5.35725 22765 ft 345 kts 69°
2026-04-28 20:09 52.76614 5.39534 23004 ft 353 kts 69°
2026-04-28 20:09 52.77446 5.43363 23639 ft 356 kts 68°
2026-04-28 20:09 52.78286 5.47214 23586 ft 355 kts 69°
2026-04-28 20:09 52.79117 5.51052 23605 ft 355 kts 69°
2026-04-28 20:10 52.79947 5.54905 23636 ft 356 kts 68°
2026-04-28 20:10 52.80779 5.58785 23626 ft 358 kts 68°
2026-04-28 20:10 52.81599 5.62612 23569 ft 357 kts 68°
2026-04-28 20:10 52.82426 5.66487 23381 ft 357 kts 69°
2026-04-28 20:11 52.83250 5.70354 23336 ft 357 kts 69°
2026-04-28 20:11 52.84072 5.74222 23323 ft 357 kts 69°
2026-04-28 20:11 52.84897 5.78112 23321 ft 357 kts 69°
2026-04-28 20:11 52.85718 5.81995 23328 ft 357 kts 69°
2026-04-28 20:12 52.86528 5.85825 23324 ft 356 kts 69°
2026-04-28 20:12 52.87339 5.89680 23322 ft 354 kts 69°
2026-04-28 20:12 52.88150 5.93527 23325 ft 355 kts 69°
2026-04-28 20:12 52.88700 5.96141 23328 ft 355 kts 69°
2026-04-28 20:13 52.89775 6.01273 23317 ft 354 kts 69°
2026-04-28 20:13 52.90574 6.05092 23340 ft 355 kts 69°
2026-04-28 20:13 52.91381 6.08960 23358 ft 357 kts 68°
2026-04-28 20:13 52.92190 6.12846 23337 ft 357 kts 68°
2026-04-28 20:14 52.92999 6.16733 23322 ft 357 kts 68°
2026-04-28 20:14 52.93806 6.20618 23327 ft 356 kts 68°
2026-04-28 20:14 52.94611 6.24507 23334 ft 357 kts 68°
2026-04-28 20:14 52.95416 6.28398 23326 ft 357 kts 69°
2026-04-28 20:15 52.96220 6.32293 23328 ft 357 kts 69°
2026-04-28 20:15 52.97023 6.36194 23332 ft 357 kts 69°
2026-04-28 20:15 52.97826 6.40099 23330 ft 357 kts 69°
2026-04-28 20:15 52.98627 6.44000 23336 ft 357 kts 69°
2026-04-28 20:16 52.99425 6.47898 23342 ft 357 kts 69°
2026-04-28 20:16 53.00221 6.51792 23340 ft 357 kts 69°
2026-04-28 20:16 53.01008 6.55653 23336 ft 357 kts 69°
2026-04-28 20:16 53.01802 6.59554 23348 ft 357 kts 69°
2026-04-28 20:17 53.02598 6.63473 23364 ft 359 kts 69°
2026-04-28 20:17 53.03395 6.67408 23348 ft 359 kts 69°
2026-04-28 20:17 53.04191 6.71343 23341 ft 359 kts 69°
2026-04-28 20:17 53.04986 6.75274 23351 ft 359 kts 69°
2026-04-28 20:18 53.05779 6.79208 23345 ft 359 kts 69°
2026-04-28 20:18 53.06303 6.81817 23343 ft 358 kts 69°
2026-04-28 20:18 53.07358 6.87071 23356 ft 358 kts 68°
2026-04-28 20:18 53.08146 6.90998 23348 ft 358 kts 69°
2026-04-28 20:19 53.08931 6.94927 23345 ft 358 kts 69°
2026-04-28 20:19 53.09716 6.98863 23351 ft 358 kts 69°
2026-04-28 20:19 53.10488 7.02739 23354 ft 358 kts 69°
2026-04-28 20:19 53.11272 7.06683 23348 ft 358 kts 69°
2026-04-28 20:20 53.12055 7.10628 23358 ft 358 kts 69°
2026-04-28 20:20 53.12837 7.14573 23360 ft 358 kts 69°
2026-04-28 20:20 53.13616 7.18530 23378 ft 360 kts 69°
2026-04-28 20:20 53.14398 7.22503 23361 ft 360 kts 69°
2026-04-28 20:21 53.15166 7.26409 23360 ft 360 kts 69°
2026-04-28 20:21 53.15946 7.30377 23374 ft 360 kts 69°
2026-04-28 20:21 53.16724 7.34346 23370 ft 360 kts 69°
2026-04-28 20:21 53.17498 7.38317 23361 ft 360 kts 69°
2026-04-28 20:22 53.18272 7.42295 23367 ft 360 kts 69°
2026-04-28 20:22 53.19046 7.46271 23373 ft 360 kts 69°
2026-04-28 20:22 53.19820 7.50258 23361 ft 360 kts 69°
2026-04-28 20:22 53.20579 7.54189 23359 ft 360 kts 69°
2026-04-28 20:23 53.21347 7.58173 23372 ft 360 kts 69°
2026-04-28 20:23 53.22116 7.62145 23371 ft 360 kts 69°
2026-04-28 20:23 53.22880 7.66103 22769 ft 356 kts 69°
2026-04-28 20:23 53.23634 7.70029 21733 ft 354 kts 69°
2026-04-28 20:24 53.24382 7.73931 20953 ft 348 kts 69°
2026-04-28 20:24 53.25100 7.77677 20639 ft 329 kts 69°
2026-04-28 20:24 53.25781 7.81228 20385 ft 312 kts 69°
2026-04-28 20:24 53.26426 7.84598 20185 ft 296 kts 69°
2026-04-28 20:25 53.27024 7.87748 19846 ft 276 kts 68°
2026-04-28 20:25 53.27596 7.90741 19061 ft 273 kts 68°
2026-04-28 20:25 53.28170 7.93759 18221 ft 271 kts 69°
2026-04-28 20:25 53.28736 7.96759 17345 ft 269 kts 69°
2026-04-28 20:26 53.29295 7.99729 16524 ft 267 kts 69°
2026-04-28 20:26 53.29849 8.02667 15727 ft 264 kts 69°
2026-04-28 20:26 53.30401 8.05588 14909 ft 263 kts 69°
2026-04-28 20:26 53.30948 8.08494 14115 ft 261 kts 69°
2026-04-28 20:27 53.31491 8.11375 13292 ft 258 kts 69°
2026-04-28 20:27 53.31954 8.14254 12506 ft 255 kts 75°
2026-04-28 20:27 53.32219 8.17173 11757 ft 252 kts 80°
2026-04-28 20:27 53.32365 8.20081 11020 ft 250 kts 86°
2026-04-28 20:28 53.32292 8.22924 10327 ft 247 kts 90°
2026-04-28 20:28 53.32160 8.25792 9579 ft 244 kts 91°
2026-04-28 20:28 53.32016 8.28605 8862 ft 239 kts 91°
2026-04-28 20:28 53.31870 8.31355 8169 ft 235 kts 92°
2026-04-28 20:29 53.31727 8.34021 7509 ft 231 kts 92°
2026-04-28 20:29 53.31585 8.36679 6852 ft 227 kts 92°
2026-04-28 20:29 53.31444 8.39288 6178 ft 223 kts 92°
2026-04-28 20:29 53.31305 8.41850 5514 ft 219 kts 92°
2026-04-28 20:30 53.31170 8.44369 4843 ft 216 kts 92°
2026-04-28 20:30 53.31036 8.46846 4200 ft 212 kts 92°
2026-04-28 20:30 53.30901 8.49284 3628 ft 209 kts 92°
2026-04-28 20:30 53.30863 8.51749 3492 ft 213 kts 78°
2026-04-28 20:31 53.31626 8.53739 3412 ft 208 kts 38°
2026-04-28 20:31 53.33040 8.54336 3393 ft 221 kts 358°
2026-04-28 20:31 53.34476 8.53324 3396 ft 229 kts 334°
2026-04-28 20:31 53.35944 8.52438 3374 ft 220 kts
2026-04-28 20:32 53.37352 8.53084 3386 ft 209 kts 38°
2026-04-28 20:32 53.38164 8.55022 3398 ft 207 kts 75°
2026-04-28 20:32 53.38014 8.57399 3393 ft 213 kts 112°
2026-04-28 20:32 53.37042 8.59321 3394 ft 220 kts 132°
2026-04-28 20:33 53.35885 8.61018 3395 ft 221 kts 135°
2026-04-28 20:33 53.34712 8.62632 3392 ft 221 kts 136°
2026-04-28 20:33 53.33513 8.64245 3388 ft 221 kts 136°
2026-04-28 20:33 53.32318 8.65861 3380 ft 220 kts 133°
2026-04-28 20:34 53.31180 8.67578 3376 ft 224 kts 143°
2026-04-28 20:34 53.29729 8.68632 3392 ft 228 kts 154°
2026-04-28 20:34 53.28263 8.69564 3381 ft 227 kts 153°
2026-04-28 20:34 53.26824 8.70629 3371 ft 226 kts 149°
2026-04-28 20:35 53.25449 8.71865 3388 ft 223 kts 141°
2026-04-28 20:35 53.24196 8.73383 3396 ft 225 kts 138°
2026-04-28 20:35 53.22958 8.74979 3386 ft 224 kts 139°
2026-04-28 20:35 53.21554 8.76158 3378 ft 229 kts 156°
2026-04-28 20:36 53.20007 8.76876 3383 ft 231 kts 162°
2026-04-28 20:36 53.18414 8.77310 3374 ft 234 kts 171°
2026-04-28 20:36 53.16789 8.77479 3375 ft 234 kts 173°
2026-04-28 20:36 53.15241 8.77571 3371 ft 207 kts 174°
2026-04-28 20:37 53.13860 8.77326 3345 ft 200 kts 199°
2026-04-28 20:37 53.12835 8.75806 3341 ft 203 kts 241°
2026-04-28 20:37 53.12533 8.73539 3362 ft 202 kts 271°
2026-04-28 20:37 53.12538 8.71221 3233 ft 202 kts 275°
2026-04-28 20:38 53.12601 8.68881 2994 ft 202 kts 276°
2026-04-28 20:38 53.12679 8.66516 2674 ft 205 kts 275°
2026-04-28 20:38 53.12688 8.64141 2486 ft 204 kts 271°
2026-04-28 20:38 53.12641 8.61868 2396 ft 188 kts 270°
2026-04-28 20:39 53.12583 8.59756 2349 ft 180 kts 270°
2026-04-28 20:39 53.12546 8.58364 2353 ft 182 kts 270°
2026-04-28 20:39 53.12489 8.56249 2370 ft 184 kts 270°
2026-04-28 20:39 53.12433 8.54123 2381 ft 183 kts 270°
2026-04-28 20:40 53.12377 8.51987 2387 ft 186 kts 270°
2026-04-28 20:40 53.12322 8.49764 2397 ft 201 kts 270°
2026-04-28 20:40 53.12262 8.47409 2404 ft 205 kts 270°
2026-04-28 20:40 53.12201 8.45040 2399 ft 204 kts 270°
2026-04-28 20:41 53.12139 8.42690 2391 ft 203 kts 270°
2026-04-28 20:41 53.12080 8.40336 2387 ft 203 kts 270°
2026-04-28 20:41 53.12016 8.37981 2384 ft 204 kts 270°
2026-04-28 20:41 53.11955 8.35647 2375 ft 204 kts 270°
2026-04-28 20:42 53.11895 8.33285 2379 ft 205 kts 270°
2026-04-28 20:42 53.11708 8.30959 2370 ft 205 kts 247°
2026-04-28 20:42 53.10780 8.29246 2364 ft 199 kts 203°
2026-04-28 20:42 53.09470 8.28924 2380 ft 188 kts 168°
2026-04-28 20:43 53.08174 8.29239 2390 ft 188 kts 162°
2026-04-28 20:43 53.06890 8.29622 2385 ft 188 kts 166°
2026-04-28 20:43 53.05574 8.29800 2375 ft 190 kts 170°
2026-04-28 20:43 53.04278 8.30067 2358 ft 181 kts 151°
2026-04-28 20:44 53.03512 8.31370 2339 ft 148 kts 102°
2026-04-28 20:44 53.03532 8.32980 2371 ft 139 kts 74°
2026-04-28 20:44 53.03652 8.34606 2392 ft 144 kts 85°
2026-04-28 20:44 53.03655 8.36243 2391 ft 143 kts 85°
2026-04-28 20:45 53.03713 8.37889 2370 ft 143 kts 83°
2026-04-28 20:45 53.03761 8.39546 2364 ft 144 kts 84°
2026-04-28 20:45 53.03793 8.41206 2376 ft 143 kts 84°
2026-04-28 20:45 53.03837 8.42866 2382 ft 144 kts 84°
2026-04-28 20:46 53.03881 8.44528 2374 ft 143 kts 84°
2026-04-28 20:46 53.03919 8.46163 2368 ft 142 kts 84°
2026-04-28 20:46 53.03959 8.47812 2376 ft 143 kts 84°
2026-04-28 20:46 53.04002 8.49458 2380 ft 142 kts 84°
2026-04-28 20:47 53.04041 8.51080 2377 ft 142 kts 84°
2026-04-28 20:47 53.04081 8.52731 2375 ft 144 kts 85°
2026-04-28 20:47 53.04122 8.54386 2377 ft 143 kts 85°
2026-04-28 20:47 53.04161 8.56041 2376 ft 143 kts 85°
2026-04-28 20:48 53.04201 8.57690 2338 ft 141 kts 85°
2026-04-28 20:48 53.04238 8.59248 2160 ft 130 kts 84°
2026-04-28 20:48 53.04273 8.60688 1985 ft 121 kts 84°
2026-04-28 20:48 53.04306 8.62073 1839 ft 120 kts 84°
2026-04-28 20:49 53.04336 8.63381 1713 ft 105 kts 83°
2026-04-28 20:49 53.04365 8.64551 1565 ft 100 kts 83°
2026-04-28 20:49 53.04391 8.65702 1443 ft 100 kts 83°
2026-04-28 20:49 53.04419 8.66870 1310 ft 106 kts 82°
2026-04-28 20:50 53.04447 8.68072 1173 ft 103 kts 82°
2026-04-28 20:50 53.04472 8.69258 1031 ft 103 kts 81°
2026-04-28 20:50 53.04513 8.70458 896 ft 106 kts 81°
2026-04-28 20:50 53.04550 8.71687 703 ft 108 kts 85°
2026-04-28 20:51 53.04559 8.72949 570 ft 110 kts 85°
2026-04-28 20:51 53.04590 8.74205 410 ft 107 kts 82°
2026-04-28 20:51 53.04621 8.75475 274 ft 110 kts 86°
2026-04-28 20:51 53.04647 8.76715 136 ft 107 kts 88°
2026-04-28 20:52 53.04673 8.77923 25 ft 96 kts 88°
2026-04-28 20:52 53.04692 8.78884 19 ft 67 kts 89°
2026-04-28 20:52 53.04746 8.79276 19 ft 19 kts 20°
2026-04-28 20:52 53.04852 8.79265 19 ft 8 kts 324°